DW6206 Weather Reports


time (UTC)temp
C
wind
direction
speed
KPH
gust
KPH
rain 1hr
cm
rain 24hr
cm
rain mn
cm
humidity
%
barometer
mb
20260506162754 8 0 0.0 8.0 0.00 3.17 2.44 99 1010.3
20260506161741 8 0 0.0 4.8 0.00 3.15 2.41 98 1010.4
20260506160709 8 337 1.6 4.8 0.00 3.15 2.41 98 1010.2
20260506155653 8 337 0.0 4.8 0.00 3.15 2.41 98 1010.3
20260506154631 8 315 0.0 4.8 0.00 3.15 2.41 98 1010.3
20260506153645 8 45 1.6 4.8 0.00 3.15 2.41 98 1010.2
20260506152621 8 270 0.0 4.8 0.00 3.15 2.41 98 1010.1
20260506151548 8 0 0.0 4.8 0.00 3.15 2.41 98 1010.2
20260506150540 8 337 0.0 4.8 0.00 3.15 2.44 98 1010.1
20260506145541 8 315 0.0 6.4 0.00 3.15 2.41 98 1009.7
20260506144528 8 337 0.0 6.4 0.00 3.15 2.41 98 1009.7
20260506143458 8 337 1.6 4.8 0.00 3.15 2.41 98 1009.7
20260506142428 8 292 0.0 4.8 0.00 3.15 2.41 98 1009.9
20260506140334 8 22 0.0 6.4 0.03 3.15 2.41 98 1009.9
20260506135351 8 45 0.0 1.6 0.00 3.10 2.39 98 1010.0
20260506134400 8 90 1.6 1.6 0.00 3.10 2.39 98 1009.8
20260506133340 8 22 0.0 8.0 0.00 3.10 2.39 98 1009.8
20260506132313 8 0 0.0 8.0 0.05 3.10 2.39 98 1009.7
20260506125111 8 0 0.0 1.6 0.25 3.05 2.34 98 1009.7
20260506124047 8 45 0.0 1.6 0.00 3.00 2.26 98 1009.6
20260506123051 8 67 0.0 4.8 0.00 2.95 2.24 99 1009.5
20260506122034 8 337 0.0 4.8 0.00 2.95 2.24 98 1009.4
20260506121020 8 337 0.0 4.8 0.00 2.95 2.24 99 1009.5
20260506114850 8 90 1.6 8.0 0.10 2.95 2.24 99 1009.3
20260506113830 8 337 0.0 1.6 0.03 2.92 2.21 99 1009.1
20260506111742 8 337 0.0 4.8 0.03 2.90 2.18 99 1009.1
20260506110807 8 45 0.0 4.8 0.08 2.90 2.18 99 1009.0
20260506105822 8 337 1.6 8.0 0.13 2.87 2.16 99 1008.8
20260506104836 8 337 4.8 8.0 0.15 2.87 2.16 99 1009.1
20260506103836 8 337 1.6 4.8 0.08 2.84 2.08 99 1009.0
20260506102828 8 337 0.0 4.8 0.08 2.82 2.06 99 1009.0
20260506100651 8 337 0.0 9.7 0.15 2.74 2.03 99 1008.7
20260506095710 8 315 0.0 8.0 0.18 2.72 1.96 99 1008.7
20260506094702 9 337 0.0 9.7 0.10 2.69 1.93 99 1008.3
20260506093654 9 337 1.6 9.7 0.10 2.67 1.91 99 1008.3
20260506092638 9 337 0.0 1.6 0.05 2.62 1.88 99 1008.2
20260506091645 9 0 0.0 8.0 0.00 2.59 1.85 99 1008.1
20260506090705 8 337 1.6 8.0 0.00 2.59 1.85 99 1008.2
20260506085720 9 337 1.6 4.8 0.00 2.57 1.85 99 1008.0
20260506084717 9 315 0.0 4.8 0.00 2.57 1.83 99 1008.2
20260506083737 9 337 0.0 1.6 0.00 2.57 1.83 99 1007.9
20260506082719 9 45 0.0 4.8 0.00 2.57 1.83 99 1007.9
20260506081649 9 45 1.6 4.8 0.00 2.57 1.83 99 1007.8
20260506080617 9 315 0.0 4.8 0.00 2.57 1.85 99 1007.9
20260506073525 9 315 0.0 1.6 0.03 2.54 1.78 99 1007.9
20260506072518 9 315 0.0 4.8 0.08 2.54 1.78 99 1007.8
20260506071510 9 337 0.0 1.6 0.03 2.51 1.75 99 1007.9
20260506070528 9 337 0.0 4.8 0.05 2.51 1.75 99 1007.8
20260506060419 9 337 0.0 0.0 0.05 2.41 1.68 99 1007.6
20260506051204 8 22 0.0 4.8 0.03 2.36 1.57 99 1007.4
20260506045037 9 270 0.0 1.6 0.13 2.34 1.55 99 1007.3
20260506044057 9 337 0.0 4.8 0.18 2.29 1.52 99 1007.4
20260506043107 8 315 0.0 4.8 0.25 2.26 1.50 99 1007.4
20260506042125 8 45 0.0 1.6 0.08 2.21 1.42 99 1007.3
20260506041131 9 247 0.0 1.6 0.10 2.18 1.40 99 1007.3
20260506040108 9 315 0.0 4.8 0.23 2.18 1.40 99 1007.2
20260506035043 9 315 0.0 4.8 0.20 2.11 1.35 99 1007.3
20260506034042 9 315 0.0 4.8 0.23 2.08 1.30 99 1007.3
20260506031912 9 292 0.0 8.0 0.18 2.03 1.24 99 1007.6
20260506030937 9 292 1.6 8.0 0.18 2.01 1.22 99 1007.3
20260506024831 9 90 1.6 4.8 0.15 1.91 1.12 99 1007.8
20260506023842 9 292 1.6 4.8 0.10 1.88 1.09 99 1007.7
20260506022823 10 292 0.0 4.8 0.23 1.85 1.07 99 1007.5
20260506021814 10 292 0.0 6.4 0.25 1.83 1.04 99 1007.8
20260506020806 10 337 0.0 6.4 0.15 1.75 0.97 99 1007.7
20260506015819 10 337 0.0 1.6 0.13 1.73 0.94 99 1007.7
20260506014756 10 315 1.6 1.6 0.25 1.70 0.91 99 1007.8
20260506013739 10 315 0.0 1.6 0.28 1.63 0.89 99 1007.7
20260506011557 10 315 0.0 6.4 0.13 1.52 0.74 99 1007.8
20260506010543 10 315 1.6 6.4 0.25 1.50 0.74 99 1007.9
20260506005519 10 315 0.0 6.4 0.30 1.45 0.69 99 1008.0
20260506003308 10 337 0.0 6.4 0.30 1.37 0.58 99 1008.1
20260506001129 10 315 0.0 6.4 0.53 1.24 0.46 99 1008.5
20260506000058 10 315 1.6 6.4 0.15 1.19 0.41 99 1008.5
20260505235057 10 315 0.0 4.8 0.33 1.19 0.41 99 1008.3
20260505234115 10 315 0.0 1.6 0.10 1.12 0.36 99 1008.5
20260505233126 10 292 0.0 1.6 0.13 1.09 0.30 99 1008.6
20260505232055 10 22 0.0 1.6 0.08 1.07 0.28 99 1008.8
20260505231030 10 292 0.0 4.8 0.15 1.04 0.25 99 1008.8
20260505230034 10 315 0.0 4.8 0.13 1.02 0.23 99 1008.9
20260505225022 10 315 0.0 4.8 0.13 0.97 0.00 99 1008.9
20260505222836 10 315 0.0 1.6 0.15 0.91 0.00 98 1009.1
20260505221822 10 315 0.0 1.6 0.18 0.89 0.00 98 1009.2
20260505220754 10 45 0.0 4.8 0.76 0.86 0.00 98 1009.2
20260505215730 10 315 0.0 4.8 0.18 0.74 0.76 98 1009.0
20260505214732 10 315 0.0 1.6 0.33 0.71 0.71 98 1009.1
20260505213712 10 22 0.0 6.4 0.20 0.64 0.64 98 1009.2
20260505211545 10 315 0.0 6.4 0.25 0.56 0.56 98 1009.4
20260505210606 10 315 0.0 1.6 1.02 0.51 0.51 97 1009.4
20260505205626 10 315 0.0 1.6 0.41 0.41 0.38 97 1009.6
20260505204610 10 315 0.0 0.0 0.38 0.36 0.30 97 1009.5
20260505203537 10 315 0.0 1.6 0.43 0.28 0.25 97 1009.3
20260505202602 10 22 0.0 4.8 0.10 0.23 0.20 97 1009.3
20260505201611 10 315 0.0 4.8 0.13 0.20 0.18 96 1009.4
20260505200622 10 315 0.0 4.8 0.13 0.18 0.13 96 1009.5
20260505195607 10 315 0.0 4.8 0.20 0.13 0.10 96 1009.5
20260505194631 10 0 0.0 4.8 0.00 0.10 0.08 95 1009.7
20260505193604 10 315 0.0 6.4 0.00 0.08 0.05 95 1009.6
20260505192626 10 315 1.6 6.4 0.00 0.08 0.05 95 1009.5
20260505191637 10 292 0.0 4.8 0.00 0.08 0.05 94 1009.5
20260505190603 10 315 0.0 1.6 0.00 0.10 0.05 94 1009.5
20260505185550 10 0 0.0 4.8 0.00 0.10 0.05 93 1009.5
20260505184612 10 315 0.0 6.4 0.00 0.10 0.05 93 1009.4
20260505182420 10 337 0.0 4.8 0.00 0.10 0.05 93 1009.5
20260505180304 11 337 0.0 1.6 0.00 0.10 0.05 93 1009.5
20260505175300 11 315 0.0 1.6 0.00 0.10 0.05 92 1009.4
20260505173205 11 67 0.0 4.8 0.00 0.13 0.05 92 1009.8
20260505172131 11 337 0.0 4.8 0.00 0.13 0.05 92 1009.5
20260505171147 11 337 1.6 8.0 0.00 0.18 0.05 92 1009.5
20260505170200 11 22 0.0 8.0 0.00 0.18 0.05 92 1009.8
20260505165212 11 45 0.0 4.8 0.00 0.18 0.05 92 1009.7